Hourly Weather Zomin

Today, 19 January, Tuesday

Time Temperature Precipitation Wind Pressure Humidity
00:00 +7°C° 0 mm 3 mps 700 mmHg 46%
01:00 +7°C° 0 mm 3 mps 700 mmHg 46%
02:00 +7°C° 0 mm 3 mps 701 mmHg 46%
03:00 +7°C° 0 mm 3 mps 701 mmHg 47%
04:00 +7°C° 0 mm 2 mps 701 mmHg 48%
05:00 +7°C° 0 mm 2 mps 700 mmHg 51%
06:00 +7°C° 0.1 mm 2 mps 700 mmHg 51%
07:00 +6°C° 0.1 mm 2 mps 701 mmHg 51%
08:00 +6°C° 0.1 mm 2 mps 701 mmHg 51%
09:00 +8°C° 0.2 mm 2 mps 702 mmHg 48%
10:00 +11°C° 0.2 mm 1 mps 702 mmHg 45%
11:00 +13°C° 0 mm 1 mps 702 mmHg 43%
12:00 +13°C° 0.2 mm 1 mps 702 mmHg 41%
13:00 +14°C° 0.2 mm 1 mps 702 mmHg 39%
14:00 +14°C° 0.2 mm 1 mps 702 mmHg 38%
15:00 +13°C° 0.2 mm 1 mps 702 mmHg 43%
16:00 +12°C° 0.2 mm 1 mps 702 mmHg 48%
17:00 +11°C° 0.2 mm 1 mps 702 mmHg 53%
18:00 +11°C° 0.4 mm 1 mps 703 mmHg 56%
19:00 +10°C° 0.4 mm 1 mps 703 mmHg 58%
20:00 +9°C° 0.4 mm 2 mps 704 mmHg 61%
21:00 +9°C° 0.3 mm 2 mps 704 mmHg 63%
22:00 +9°C° 0.3 mm 1 mps 704 mmHg 64%
23:00 +9°C° 0.3 mm 1 mps 705 mmHg 66%

Tomorrow, 20 January, Wednesday

Time Temperature Precipitation Wind Pressure Humidity
00:00 +8°C° 0 mm 1 mps 705 mmHg 65%
01:00 +7°C° 0 mm 2 mps 705 mmHg 64%
02:00 +6°C° 0 mm 2 mps 705 mmHg 64%
03:00 +6°C° 0 mm 2 mps 706 mmHg 58%
04:00 +7°C° 0 mm 3 mps 706 mmHg 53%
05:00 +7°C° 0 mm 3 mps 707 mmHg 48%
06:00 +7°C° 0 mm 3 mps 707 mmHg 46%
07:00 +5°C° 0 mm 3 mps 707 mmHg 44%
08:00 +6°C° 0 mm 2 mps 707 mmHg 43%
09:00 +8°C° 0 mm 2 mps 707 mmHg 40%
10:00 +10°C° 0 mm 2 mps 707 mmHg 37%
11:00 +13°C° 0 mm 2 mps 707 mmHg 34%
12:00 +13°C° 0 mm 2 mps 706 mmHg 33%
13:00 +13°C° 0 mm 3 mps 706 mmHg 32%
14:00 +14°C° 0 mm 3 mps 705 mmHg 31%
15:00 +13°C° 0 mm 3 mps 705 mmHg 37%
16:00 +12°C° 0 mm 4 mps 704 mmHg 42%
17:00 +11°C° 0 mm 4 mps 704 mmHg 48%
18:00 +10°C° 0 mm 4 mps 704 mmHg 48%
19:00 +9°C° 0 mm 3 mps 704 mmHg 47%
20:00 +8°C° 0 mm 3 mps 704 mmHg 46%
21:00 +8°C° 0 mm 3 mps 703 mmHg 42%
22:00 +8°C° 0 mm 3 mps 703 mmHg 37%
23:00 +7°C° 0 mm 3 mps 703 mmHg 32%

Day after tomorrow, 21 January, Thursday

Time Temperature Precipitation Wind Pressure Humidity
00:00 +7°C° 0 mm 3 mps 702 mmHg 29%
01:00 +7°C° 0 mm 3 mps 702 mmHg 27%
02:00 +7°C° 0 mm 3 mps 701 mmHg 24%
03:00 +5°C° 0 mm 3 mps 701 mmHg 23%
04:00 +5°C° 0 mm 3 mps 700 mmHg 22%
05:00 +5°C° 0 mm 3 mps 699 mmHg 21%
06:00 +5°C° 0 mm 3 mps 699 mmHg 21%
07:00 +5°C° 0 mm 3 mps 699 mmHg 21%
08:00 +4°C° 0 mm 3 mps 698 mmHg 21%
09:00 +8°C° 0 mm 3 mps 698 mmHg 20%
10:00 +11°C° 0 mm 3 mps 698 mmHg 19%
11:00 +13°C° 0 mm 3 mps 698 mmHg 18%
12:00 +15°C° 0 mm 2 mps 698 mmHg 18%
13:00 +16°C° 0 mm 2 mps 697 mmHg 17%
14:00 +17°C° 0 mm 2 mps 696 mmHg 17%
15:00 +16°C° 0 mm 2 mps 696 mmHg 20%
16:00 +15°C° 0 mm 2 mps 695 mmHg 23%
17:00 +13°C° 0 mm 2 mps 695 mmHg 26%
18:00 +12°C° 0 mm 2 mps 696 mmHg 32%
19:00 +10°C° 0 mm 2 mps 696 mmHg 37%
20:00 +10°C° 0 mm 2 mps 696 mmHg 43%
21:00 +9°C° 0 mm 2 mps 696 mmHg 46%
22:00 +9°C° 0 mm 2 mps 696 mmHg 48%
23:00 +8°C° 0 mm 2 mps 696 mmHg 51%

22 January, Friday

Time Temperature Precipitation Wind Pressure Humidity
00:00 +8°C° 0.4 mm 2 mps 697 mmHg 58%
01:00 +7°C° 0.4 mm 3 mps 697 mmHg 64%
02:00 +7°C° 0.4 mm 3 mps 698 mmHg 71%
03:00 +5°C° 0.5 mm 4 mps 699 mmHg 73%
04:00 +4°C° 0.5 mm 4 mps 700 mmHg 76%
05:00 +2°C° 0.5 mm 5 mps 700 mmHg 79%
06:00 -1°C° 0.8 mm 6 mps 702 mmHg 79%
07:00 -4°C° 0.8 mm 8 mps 704 mmHg 80%
08:00 -6°C° 0.8 mm 9 mps 705 mmHg 80%
09:00 -7°C° 1.1 mm 7 mps 707 mmHg 82%
10:00 -6°C° 1.1 mm 5 mps 708 mmHg 84%
11:00 -6°C° 1.1 mm 3 mps 709 mmHg 85%
12:00 -6°C° 1.1 mm 3 mps 709 mmHg 88%
13:00 -6°C° 1.1 mm 3 mps 710 mmHg 90%
14:00 -6°C° 1.1 mm 3 mps 710 mmHg 93%
15:00 -5°C° 0.9 mm 2 mps 710 mmHg 94%
16:00 -5°C° 0.9 mm 2 mps 711 mmHg 94%
17:00 -6°C° 0.9 mm 2 mps 711 mmHg 95%
18:00 -6°C° 0.7 mm 2 mps 712 mmHg 96%
19:00 -4°C° 0.7 mm 1 mps 712 mmHg 96%
20:00 -4°C° 0.7 mm 1 mps 713 mmHg 96%
21:00 -4°C° 0.6 mm 1 mps 714 mmHg 96%
22:00 -4°C° 0.6 mm 1 mps 714 mmHg 96%
23:00 -6°C° 0.6 mm 0 mps 715 mmHg 96%

23 January, Saturday

Time Temperature Precipitation Wind Pressure Humidity
00:00 -6°C° 0.3 mm 1 mps 715 mmHg 93%
01:00 -7°C° 0.3 mm 1 mps 715 mmHg 90%
02:00 -8°C° 0.3 mm 2 mps 716 mmHg 88%
03:00 -9°C° 0.1 mm 2 mps 716 mmHg 85%
04:00 -10°C° 0.1 mm 2 mps 716 mmHg 82%
05:00 -10°C° 0.1 mm 2 mps 716 mmHg 79%
06:00 -10°C° 0 mm 2 mps 716 mmHg 75%
07:00 -10°C° 0 mm 2 mps 717 mmHg 71%
08:00 -13°C° 0 mm 3 mps 717 mmHg 67%
09:00 -9°C° 0 mm 2 mps 717 mmHg 66%
10:00 -7°C° 0 mm 2 mps 717 mmHg 65%
11:00 -4°C° 0 mm 1 mps 717 mmHg 64%
12:00 -3°C° 0 mm 1 mps 717 mmHg 65%
13:00 -3°C° 0 mm 1 mps 716 mmHg 66%
14:00 -2°C° 0 mm 1 mps 716 mmHg 67%
15:00 -3°C° 0 mm 1 mps 716 mmHg 70%
16:00 -4°C° 0 mm 1 mps 715 mmHg 73%
17:00 -6°C° 0 mm 1 mps 715 mmHg 76%
18:00 -6°C° 0 mm 1 mps 715 mmHg 70%
19:00 -7°C° 0 mm 1 mps 715 mmHg 65%
20:00 -8°C° 0 mm 2 mps 715 mmHg 59%
21:00 -8°C° 0 mm 2 mps 715 mmHg 57%
22:00 -7°C° 0 mm 1 mps 715 mmHg 54%
23:00 -8°C° 0 mm 1 mps 715 mmHg 52%

24 January, Sunday

Time Temperature Precipitation Wind Pressure Humidity
00:00 -8°C° 0 mm 1 mps 714 mmHg 51%
01:00 -9°C° 0 mm 2 mps 714 mmHg 51%
02:00 -9°C° 0 mm 2 mps 713 mmHg 50%
03:00 -9°C° 0 mm 2 mps 713 mmHg 50%
04:00 -9°C° 0 mm 2 mps 712 mmHg 49%
05:00 -9°C° 0 mm 2 mps 712 mmHg 49%
06:00 -9°C° 0 mm 2 mps 712 mmHg 49%
07:00 -9°C° 0 mm 2 mps 712 mmHg 49%
08:00 -9°C° 0 mm 2 mps 712 mmHg 49%
09:00 -7°C° 0 mm 2 mps 712 mmHg 53%
10:00 -6°C° 0 mm 3 mps 712 mmHg 57%
11:00 -4°C° 0 mm 3 mps 711 mmHg 61%
12:00 -2°C° 0 mm 3 mps 711 mmHg 63%
13:00 -2°C° 0 mm 3 mps 710 mmHg 66%
14:00 -2°C° 0 mm 4 mps 710 mmHg 68%
15:00 -2°C° 0 mm 3 mps 709 mmHg 70%
16:00 -3°C° 0 mm 2 mps 709 mmHg 72%
17:00 -4°C° 0 mm 2 mps 709 mmHg 74%
18:00 -5°C° 0 mm 2 mps 709 mmHg 71%
19:00 -4°C° 0 mm 1 mps 709 mmHg 68%
20:00 -6°C° 0 mm 1 mps 709 mmHg 64%
21:00 -6°C° 0 mm 1 mps 709 mmHg 62%
22:00 -6°C° 0 mm 1 mps 708 mmHg 59%
23:00 -6°C° 0 mm 1 mps 708 mmHg 57%
Show more